Погода в Паранаибе

Бразилия     19°41′24″S   51°11′12″W
темп.,
°C
ветер,
м/с
пор.,
м/с
влажн.,
%
обл.,
%
осадки,
мм/ч
давл.,
гПа
погр.,
м
27 февраля, сб
сб2723:00+21всв38920 0.8 1011218
02:00+20всв27930 0.8 1010227
05:00+20св26981 1.6 1010204
08:00+23св368710 3.9 1012357
11:00+27св23750 6.6 1011598
14:00+30ю11610 10.2 10081216
17:00+26вюв358418 3.2 1007170
20:00+22юв368914 4.2 1009143
28 февраля, вс
вс2823:00+21в27953 0.0 1010191
02:00+21всв38966 0.0 1008334
05:00+20св4109819 0.0 1010471
08:00+24ссв478526 0.0 1011705
11:00+26ссв458241 4.3 1010768
14:00+27ссв467725 8.4 10071029
17:00+26всв37830 1.8 1006701
20:00+22св411905 1.8 1009381
1 марта, пн
пн123:00+22св3109199 0.0 1010362
02:00+21св4109391 0.0 1009387
05:00+21св5129233 0.0 1010517
08:00+22ссв5108649 0.0 1012575
11:00+22ссв498599 0.1 1011622
14:00+27ссв586867 0.1 1007952
17:00+26всв37830 2.1 1007287
20:00+22св349131 2.4 1009104
2 марта, вт
вт223:00+21св259262 0.0 1011140
02:00+20ссв249376 0.0 1010110
05:00+21ссв2694100 0.0 1011196
08:00+23ссв488795 0.0 1013508
11:00+28ссв576516 0.1 10121277
14:00+29ссв456110 0.3 10091483
17:00+27св237329 0.2 1008103
20:00+23всв238856 3.9 101136
3 марта, ср
ср323:00+22св2390100 0.4 101346
02:00+21св3794100 0.9 1012233
05:00+21св3897100 0.1 1013322
08:00+24с4886100 0.1 1016505
11:00+28с687189 0.6 1014991
14:00+28с477287 3.2 10111205
17:00+26с3477100 0.3 1010206
20:00+23с2278100 0.3 101234